User: anonymous
Location: Caltech
(34.1382°N, 118.1253°W)
Time: 07:15:55
(UTC-07:00)
Language:

GPS 2-04 Rocket1 - Orbit

View from above orbital plane
View from above orbital plane
View from above satellite
View from above satellite

Ground track
Ground track

The orbit data is extracted from the following two-line orbital elements,

1 20303U 89085B   14273.44890814  .00016924  00000-0  79395-3 0  8866
2 20303 035.6325 065.7764 0137127 111.9845 280.6168 15.10837330349816
Epoch (UTC): 30 September 2014 10:46:25
Eccentricity: 0.0137127
inclination: 35.6325°
perigee height: 439 km
apogee height: 628 km
right ascension of ascending node: 65.7764°
argument of perigee: 111.9845°
revolutions per day: 15.10837330
mean anomaly at epoch: 280.6168°
orbit number at epoch: 34981

The dashed part of the orbit path shows where the satellite is in the earth's shadow,  

DLR